Weather History for Poplar Bluff, MO

Change the Weather History Date:

Tuesday, December 4, 2012

  Actual Average Record
Temperature  
Mean Temperature 54 °F -  
Max Temperature 66 °F 52 °F 74 °F (1970)
Min Temperature 43 °F 30 °F 9 °F (1929)
Degree Days  
Heating Degree Days 10    
Growing Degree Days 4 (Base 50)    
Moisture  
Dew Point 55 °F    
Average Humidity 85    
Maximum Humidity 94    
Minimum Humidity 74    
Precipitation  
Precipitation 0.48 in - - ()
Sea Level Pressure  
Sea Level Pressure 30.10 in    
Wind  
Wind Speed 6 mph (WNW)    
Max Wind Speed 13 mph    
Max Gust Speed 20 mph    
Visibility 8 miles    
Events Rain , Thunderstorm    
Averages and records for this station are not official NWS values.
T = Trace of Precipitation, MM = Missing Value Source: NWS Daily Summary

Daily Weather History Graph

Daily Weather History Graph

Search for Another Location

Airport:

Trip Planner

Search our weather history database for the weather conditions in past years. The results will help you decide how hot, cold, wet, or windy it might be!

Date:

Astronomy

Dec. 04, 2012 Rise Set
Actual Time 6:58 AM CST 4:44 PM CST
Civil Twilight 6:29 AM CST 5:13 PM CST
Nautical Twilight 5:57 AM CST 5:45 PM CST
Astronomical Twilight 5:26 AM CST 6:17 PM CST
Moon 10:26 PM CST (12/4) 10:57 AM CST (12/4)
Length of Visible Light 10h 43m
Length of Day
9h 46m
Waning Gibbous, 69% of the Moon is Illuminated
Dec 4
Waning Gibbous
Dec 6
Last Quarter
Dec 13
New
Dec 19
First Quarter
Dec 28
Full

Hourly Weather History & Observations

Time (CST) Temp. Windchill Dew Point Humidity Pressure Visibility Wind Dir Wind Speed Gust Speed Precip Events Conditions
12:45 AM 64.4 °F - 57.2 °F 77% 30.01 in 10.0 mi South 5.8 mph - N/A   Mostly Cloudy
12:53 AM 64.9 °F - 57.9 °F 78% 30.01 in 10.0 mi South 4.6 mph - N/A   Mostly Cloudy
1:23 AM 64.4 °F - 57.2 °F 77% 30.01 in 10.0 mi SSW 4.6 mph - N/A   Overcast
1:53 AM 66.0 °F - 59.0 °F 78% 30.00 in 10.0 mi South 10.4 mph 18.4 mph N/A   Overcast
2:53 AM 64.0 °F - 59.0 °F 84% 30.00 in 10.0 mi South 8.1 mph - N/A   Overcast
3:53 AM 64.9 °F - 59.0 °F 81% 30.00 in 10.0 mi SSW 6.9 mph - N/A   Overcast
4:53 AM 66.0 °F - 60.1 °F 81% 30.00 in 10.0 mi South 11.5 mph - N/A   Overcast
5:38 AM 66.2 °F - 60.8 °F 83% 30.01 in 10.0 mi SSW 9.2 mph - N/A   Mostly Cloudy
5:53 AM 66.0 °F - 60.1 °F 81% 30.01 in 10.0 mi South 10.4 mph - N/A   Overcast
6:35 AM 66.2 °F - 60.8 °F 83% 30.03 in 10.0 mi SSW 8.1 mph - N/A   Overcast
6:50 AM 66.2 °F - 60.8 °F 83% 30.04 in 10.0 mi West 6.9 mph - N/A   Overcast
6:53 AM 66.0 °F - 61.0 °F 84% 30.04 in 10.0 mi West 5.8 mph - N/A   Overcast
7:17 AM 62.6 °F - 59.0 °F 88% 30.06 in 2.5 mi WNW 8.1 mph - 0.08 in Rain Heavy Rain
7:26 AM 62.6 °F - 59.0 °F 88% 30.07 in 1.2 mi WNW 5.8 mph - 0.14 in Rain Heavy Rain
7:40 AM 62.6 °F - 59.0 °F 88% 30.07 in 3.0 mi NW 3.5 mph - 0.19 in Rain Rain
7:46 AM 62.6 °F - 59.0 °F 88% 30.07 in 2.5 mi NW 3.5 mph - 0.20 in Rain , Thunderstorm Rain
7:53 AM 62.1 °F - 59.0 °F 90% 30.07 in 2.0 mi Calm Calm - 0.23 in Rain , Thunderstorm Rain
8:05 AM 62.6 °F - 59.0 °F 88% 30.07 in 3.0 mi NW 4.6 mph - 0.03 in Rain Light Rain
8:53 AM 62.1 °F - 59.0 °F 90% 30.09 in 5.0 mi Calm Calm - 0.11 in Rain Light Rain
9:53 AM 63.0 °F - 61.0 °F 93% 30.09 in 10.0 mi South 4.6 mph - 0.01 in Rain Light Rain
10:53 AM 62.1 °F - 60.1 °F 93% 30.07 in 5.0 mi Calm Calm - 0.05 in Rain Light Rain
11:23 AM 62.6 °F - 60.8 °F 94% 30.05 in 10.0 mi Calm Calm - 0.01 in   Overcast
11:40 AM 62.6 °F - 60.8 °F 94% 30.09 in 10.0 mi West 6.9 mph - 0.01 in   Overcast
11:48 AM 62.6 °F - 60.8 °F 94% 30.09 in 10.0 mi West 6.9 mph - 0.01 in   Overcast
11:53 AM 63.0 °F - 61.0 °F 93% 30.09 in 10.0 mi West 5.8 mph - 0.01 in   Overcast
12:08 PM 59.0 °F - 55.4 °F 88% 30.09 in 7.0 mi North 12.7 mph 19.6 mph 0.01 in Rain Rain
12:42 PM 57.2 °F - 53.6 °F 88% 30.10 in 10.0 mi North 12.7 mph - 0.06 in Rain Light Rain
12:53 PM 55.9 °F - 53.1 °F 90% 30.08 in 10.0 mi NNE 11.5 mph - 0.06 in Rain Light Rain
1:22 PM 55.4 °F - 53.6 °F 94% 30.12 in 10.0 mi NW 8.1 mph - 0.01 in Rain Light Rain
1:53 PM 55.0 °F - 52.0 °F 89% 30.12 in 10.0 mi North 6.9 mph - 0.01 in   Overcast
2:07 PM 55.4 °F - 51.8 °F 88% 30.13 in 9.0 mi North 5.8 mph - 0.00 in Rain Light Rain
2:53 PM 55.0 °F - 51.1 °F 86% 30.14 in 10.0 mi North 10.4 mph - 0.00 in   Overcast
3:53 PM 55.0 °F - 50.0 °F 83% 30.18 in 10.0 mi North 6.9 mph - N/A   Mostly Cloudy
4:53 PM 54.0 °F - 46.9 °F 77% 30.18 in 10.0 mi North 6.9 mph - N/A   Clear
5:53 PM 53.1 °F - 45.0 °F 74% 30.20 in 10.0 mi North 6.9 mph - N/A   Scattered Clouds
6:53 PM 50.0 °F - 43.0 °F 77% 30.22 in 10.0 mi North 8.1 mph - N/A   Clear
7:53 PM 48.0 °F - 41.0 °F 77% 30.25 in 10.0 mi North 5.8 mph - N/A   Clear
8:53 PM 46.9 °F - 39.9 °F 77% 30.26 in 10.0 mi NNW 5.8 mph - N/A   Clear
9:53 PM 45.0 °F 43.5 °F 39.9 °F 82% 30.28 in 10.0 mi North 3.5 mph - N/A   Clear
10:53 PM 43.0 °F 39.5 °F 37.9 °F 82% 30.30 in 10.0 mi North 5.8 mph - N/A   Clear
11:53 PM 44.1 °F 40.1 °F 37.9 °F 79% 30.30 in 10.0 mi North 6.9 mph - N/A   Clear